Reading, PA

12:17 PM EST on December 04, 2016 (GMT -0500)
Reading Regional-Spaatz

Weather History for KRDG - May, 2013

Change the Weather History Date:

Thursday, May 30, 2013

  Actual Average Record
Temperature  
Mean Temperature 78 °F 66 °F  
Max Temperature 92 °F 77 °F 94 °F (1969)
Min Temperature 64 °F 55 °F 41 °F (1996)
Degree Days  
Heating Degree Days 0 3  
Month to date heating degree days 143 168  
Since 1 July heating degree days 4988 5366  
Cooling Degree Days 13 3  
Month to date cooling degree days 68 50  
Year to date cooling degree days 83 59  
Growing Degree Days 28 (Base 50)    
Moisture  
Dew Point 64 °F    
Average Humidity 66    
Maximum Humidity 93    
Minimum Humidity 38    
Precipitation  
Precipitation 0.00 in 0.16 in 2.92 in (1904)
Month to date precipitation 3.46 4.08  
Year to date precipitation 13.04 16.86  
Sea Level Pressure  
Sea Level Pressure 30.13 in    
Wind  
Wind Speed 3 mph (WSW)    
Max Wind Speed 12 mph    
Max Gust Speed 16 mph    
Visibility 10 miles    
Events      
T = Trace of Precipitation, MM = Missing Value Source: NWS Daily Summary

Daily Weather History Graph

Daily Weather History Graph

Search for Another Location

Airport or City:

Trip Planner

Search our weather history database for the weather conditions in past years. The results will help you decide how hot, cold, wet, or windy it might be!

Date:

Astronomy

May. 30, 2013 Rise Set
Actual Time 5:36 AM EDT 8:26 PM EDT
Civil Twilight 5:04 AM EDT 8:58 PM EDT
Nautical Twilight 4:23 AM EDT 9:39 PM EDT
Astronomical Twilight 3:37 AM EDT 10:26 PM EDT
Moon 12:25 AM EDT (5/30) 11:43 AM EDT (5/30)
Length of Visible Light 15h 54m
Length of Day
14h 49m
Waning Gibbous, 62% of the Moon is Illuminated
May 30
Waning Gibbous
May 31
Last Quarter
Jun 8
New
Jun 16
First Quarter
Jun 23
Full

Hourly Weather History & Observations

Time (EDT) Temp. Heat Index Dew Point Humidity Pressure Visibility Wind Dir Wind Speed Gust Speed Precip Events Conditions
12:54 AM 73.0 °F - 66.0 °F 79% 30.09 in 10.0 mi South 3.5 mph - N/A   Clear
1:54 AM 72.0 °F - 66.0 °F 81% 30.10 in 10.0 mi Calm Calm - N/A   Clear
2:54 AM 69.1 °F - 64.0 °F 84% 30.11 in 10.0 mi Calm Calm - N/A   Clear
3:54 AM 68.0 °F - 64.0 °F 87% 30.11 in 10.0 mi Calm Calm - N/A   Clear
4:54 AM 64.9 °F - 62.1 °F 90% 30.12 in 9.0 mi Calm Calm - N/A   Clear
5:54 AM 64.9 °F - 62.1 °F 90% 30.14 in 9.0 mi Calm Calm - N/A   Clear
6:54 AM 69.1 °F - 64.0 °F 84% 30.16 in 9.0 mi Calm Calm - N/A   Clear
7:54 AM 73.0 °F - 66.0 °F 79% 30.17 in 7.0 mi Calm Calm - N/A   Clear
8:54 AM 78.1 °F - 66.0 °F 66% 30.16 in 10.0 mi Calm Calm - N/A   Clear
9:54 AM 82.0 °F 84.5 °F 66.9 °F 60% 30.16 in 10.0 mi West 4.6 mph - N/A   Clear
10:54 AM 86.0 °F 88.2 °F 66.0 °F 51% 30.16 in 10.0 mi WNW 5.8 mph - N/A   Clear
11:54 AM 88.0 °F 90.3 °F 66.0 °F 48% 30.17 in 10.0 mi Variable 5.8 mph - N/A   Clear
12:54 PM 90.0 °F 91.7 °F 64.9 °F 43% 30.15 in 10.0 mi Variable 3.5 mph - N/A   Partly Cloudy
1:54 PM 90.0 °F 90.3 °F 62.1 °F 39% 30.14 in 10.0 mi Variable 3.5 mph - N/A   Partly Cloudy
2:54 PM 91.9 °F 92.9 °F 63.0 °F 38% 30.12 in 10.0 mi SSW 5.8 mph - N/A   Clear
3:54 PM 90.0 °F 90.3 °F 62.1 °F 39% 30.12 in 10.0 mi West 8.1 mph - N/A   Partly Cloudy
4:54 PM 91.0 °F 92.6 °F 64.0 °F 41% 30.11 in 10.0 mi WNW 9.2 mph - N/A   Scattered Clouds
5:54 PM 90.0 °F 90.6 °F 63.0 °F 40% 30.09 in 10.0 mi SW 8.1 mph - N/A   Partly Cloudy
6:54 PM 88.0 °F 88.7 °F 63.0 °F 43% 30.09 in 10.0 mi WSW 8.1 mph - N/A   Clear
7:54 PM 84.9 °F 86.1 °F 64.0 °F 49% 30.11 in 10.0 mi WSW 3.5 mph - N/A   Clear
8:54 PM 82.0 °F 83.8 °F 64.9 °F 56% 30.10 in 10.0 mi South 5.8 mph - N/A   Clear
9:54 PM 80.1 °F 82.1 °F 66.0 °F 62% 30.11 in 10.0 mi Calm Calm - N/A   Clear
10:54 PM 75.9 °F - 66.0 °F 71% 30.12 in 10.0 mi Calm Calm - N/A   Clear
11:54 PM 75.9 °F - 64.9 °F 69% 30.13 in 10.0 mi Calm Calm - N/A   Clear